Time,TemperatureF,DewpointF,PressureIn,WindDirection,WindDirectionDegrees,WindSpeedMPH,WindSpeedGustMPH,Humidity,HourlyPrecipIn,Conditions,Clouds,dailyrainin,SoftwareType,DateUTC
2013-03-15 00:12:00,48.5,39.0,30.10,SW,227,0.0,0.0,69,0.00,,,0.00,weatherlink.com 1.10,2013-03-15 07:12:00,
2013-03-15 00:27:00,48.3,39.0,30.11,SW,227,0.0,0.0,71,0.00,,,0.00,weatherlink.com 1.10,2013-03-15 07:27:00,
2013-03-15 00:42:00,47.7,39.0,30.11,SW,226,0.0,0.0,73,0.00,,,0.00,weatherlink.com 1.10,2013-03-15 07:42:00,
2013-03-15 00:59:00,47.1,39.0,30.10,SW,227,0.0,3.0,74,0.00,,,0.00,weatherlink.com 1.10,2013-03-15 07:59:00,
2013-03-15 01:14:00,46.5,39.0,30.11,SW,227,0.0,0.0,76,0.00,,,0.00,weatherlink.com 1.10,2013-03-15 08:14:00,
2013-03-15 01:29:00,46.5,39.0,30.11,SW,226,0.0,0.0,75,0.00,,,0.00,weatherlink.com 1.10,2013-03-15 08:29:00,
2013-03-15 01:44:00,45.9,39.0,30.11,SW,227,0.0,0.0,77,0.00,,,0.00,weatherlink.com 1.10,2013-03-15 08:44:00,
2013-03-15 01:59:00,46.2,40.0,30.11,SW,227,0.0,0.0,78,0.00,,,0.00,weatherlink.com 1.10,2013-03-15 08:59:00,
2013-03-15 02:14:00,46.4,40.0,30.11,SW,227,0.0,0.0,78,0.00,,,0.00,weatherlink.com 1.10,2013-03-15 09:14:00,
2013-03-15 02:29:00,45.5,39.0,30.12,SW,227,0.0,0.0,77,0.00,,,0.00,weatherlink.com 1.10,2013-03-15 09:29:00,
2013-03-15 02:44:00,44.5,38.0,30.12,SW,227,0.0,0.0,77,0.00,,,0.00,weatherlink.com 1.10,2013-03-15 09:44:00,
2013-03-15 02:59:00,41.8,36.0,30.12,SSE,161,2.0,4.0,79,0.00,,,0.00,weatherlink.com 1.10,2013-03-15 09:59:00,
2013-03-15 03:14:00,40.5,36.0,30.12,SSE,152,0.0,3.0,83,0.00,,,0.00,weatherlink.com 1.10,2013-03-15 10:14:00,
2013-03-15 03:29:00,40.8,37.0,30.11,SSE,152,0.0,0.0,85,0.00,,,0.00,weatherlink.com 1.10,2013-03-15 10:29:00,
2013-03-15 03:44:00,41.6,37.0,30.11,SSE,152,0.0,0.0,83,0.00,,,0.00,weatherlink.com 1.10,2013-03-15 10:44:00,
2013-03-15 04:00:00,41.4,37.0,30.11,SSE,152,0.0,0.0,84,0.00,,,0.00,weatherlink.com 1.10,2013-03-15 11:00:00,
2013-03-15 04:14:00,39.4,34.0,30.11,SSE,152,0.0,0.0,81,0.00,,,0.00,weatherlink.com 1.10,2013-03-15 11:14:00,
2013-03-15 04:30:00,37.1,33.0,30.11,SSE,152,0.0,0.0,84,0.00,,,0.00,weatherlink.com 1.10,2013-03-15 11:30:00,
2013-03-15 04:45:00,38.3,35.0,30.11,SSE,152,0.0,0.0,87,0.00,,,0.00,weatherlink.com 1.10,2013-03-15 11:45:00,
2013-03-15 05:00:00,38.4,35.0,30.11,SSE,152,0.0,0.0,87,0.00,,,0.00,weatherlink.com 1.10,2013-03-15 12:00:00,
2013-03-15 05:15:00,39.2,36.0,30.11,SSE,152,0.0,0.0,87,0.00,,,0.00,weatherlink.com 1.10,2013-03-15 12:15:00,
2013-03-15 05:30:00,40.1,37.0,30.11,SSE,152,0.0,0.0,87,0.00,,,0.00,weatherlink.com 1.10,2013-03-15 12:30:00,
2013-03-15 05:46:00,41.3,38.0,30.11,SSE,152,0.0,0.0,87,0.00,,,0.00,weatherlink.com 1.10,2013-03-15 12:46:00,
2013-03-15 06:01:00,41.5,37.0,30.12,SSE,152,0.0,1.0,84,0.00,,,0.00,weatherlink.com 1.10,2013-03-15 13:01:00,
2013-03-15 06:16:00,41.6,38.0,30.12,SSE,152,0.0,2.0,86,0.00,,,0.00,weatherlink.com 1.10,2013-03-15 13:16:00,
2013-03-15 06:31:00,41.1,37.0,30.12,SSE,152,0.0,0.0,85,0.00,,,0.00,weatherlink.com 1.10,2013-03-15 13:31:00,
2013-03-15 07:01:00,39.6,36.0,30.12,SSE,152,0.0,0.0,87,0.00,,,0.00,weatherlink.com 1.10,2013-03-15 14:01:00,
2013-03-15 07:16:00,39.3,36.0,30.12,SSE,152,0.0,0.0,88,0.00,,,0.00,weatherlink.com 1.10,2013-03-15 14:16:00,
2013-03-15 07:32:00,39.0,36.0,30.12,SSE,152,0.0,0.0,88,0.00,,,0.00,weatherlink.com 1.10,2013-03-15 14:32:00,
2013-03-15 07:47:00,38.4,35.0,30.12,SSE,150,0.0,0.0,87,0.00,,,0.00,weatherlink.com 1.10,2013-03-15 14:47:00,
2013-03-15 08:02:00,38.3,35.0,30.13,SSE,152,0.0,0.0,89,0.00,,,0.00,weatherlink.com 1.10,2013-03-15 15:02:00,
2013-03-15 08:17:00,39.4,37.0,30.13,SSE,151,0.0,0.0,89,0.00,,,0.00,weatherlink.com 1.10,2013-03-15 15:17:00,
2013-03-15 08:32:00,41.3,38.0,30.13,SSE,152,3.0,3.0,89,0.00,,,0.00,weatherlink.com 1.10,2013-03-15 15:32:00,
2013-03-15 08:47:00,42.6,39.0,30.13,SSE,152,0.0,0.0,88,0.00,,,0.00,weatherlink.com 1.10,2013-03-15 15:47:00,
2013-03-15 09:02:00,43.6,40.0,30.14,SSE,152,0.0,0.0,86,0.00,,,0.00,weatherlink.com 1.10,2013-03-15 16:02:00,
2013-03-15 09:20:00,44.4,40.0,30.14,WNW,285,0.0,0.0,84,0.00,,,0.00,weatherlink.com 1.10,2013-03-15 16:20:00,
2013-03-15 09:34:00,45.4,40.0,30.14,WNW,284,0.0,0.0,82,0.00,,,0.00,weatherlink.com 1.10,2013-03-15 16:34:00,
2013-03-15 09:49:00,46.8,41.0,30.14,WNW,285,0.0,1.0,80,0.00,,,0.00,weatherlink.com 1.10,2013-03-15 16:49:00,
2013-03-15 10:05:00,47.2,41.0,30.14,WNW,285,0.0,1.0,78,0.00,,,0.00,weatherlink.com 1.10,2013-03-15 17:05:00,
2013-03-15 10:19:00,47.5,41.0,30.14,WNW,285,0.0,0.0,78,0.00,,,0.00,weatherlink.com 1.10,2013-03-15 17:19:00,
2013-03-15 10:34:00,49.9,43.0,30.14,WNW,284,0.0,0.0,76,0.00,,,0.00,weatherlink.com 1.10,2013-03-15 17:34:00,
2013-03-15 10:49:00,52.2,43.0,30.14,NW,309,0.0,5.0,71,0.00,,,0.00,weatherlink.com 1.10,2013-03-15 17:49:00,
2013-03-15 11:04:00,53.9,43.0,30.14,NNE,14,0.0,5.0,66,0.00,,,0.00,weatherlink.com 1.10,2013-03-15 18:04:00,
2013-03-15 11:19:00,55.2,42.0,30.14,NNE,19,0.0,4.0,62,0.00,,,0.00,weatherlink.com 1.10,2013-03-15 18:19:00,
2013-03-15 11:34:00,56.2,42.0,30.14,NE,38,1.0,6.0,59,0.00,,,0.00,weatherlink.com 1.10,2013-03-15 18:34:00,
2013-03-15 12:04:00,57.1,41.0,30.13,NE,52,1.0,7.0,56,0.00,,,0.00,weatherlink.com 1.10,2013-03-15 19:04:00,
2013-03-15 12:35:00,56.9,41.0,30.13,NNW,337,3.0,6.0,55,0.00,,,0.00,weatherlink.com 1.10,2013-03-15 19:35:00,
2013-03-15 12:50:00,56.3,41.0,30.13,NW,319,3.0,6.0,56,0.00,,,0.00,weatherlink.com 1.10,2013-03-15 19:50:00,
2013-03-15 13:05:00,55.9,41.0,30.12,NW,317,0.0,4.0,57,0.00,,,0.00,weatherlink.com 1.10,2013-03-15 20:05:00,
2013-03-15 13:20:00,56.3,41.0,30.11,West,261,1.0,5.0,56,0.00,,,0.00,weatherlink.com 1.10,2013-03-15 20:20:00,
2013-03-15 13:35:00,58.0,40.0,30.11,WNW,299,0.0,0.0,51,0.00,,,0.00,weatherlink.com 1.10,2013-03-15 20:35:00,
2013-03-15 13:50:00,57.4,38.0,30.11,NW,304,0.0,7.0,49,0.00,,,0.00,weatherlink.com 1.10,2013-03-15 20:50:00,
2013-03-15 14:05:00,58.0,38.0,30.10,NW,318,0.0,5.0,48,0.00,,,0.00,weatherlink.com 1.10,2013-03-15 21:05:00,
2013-03-15 14:20:00,58.5,38.0,30.10,WNW,297,0.0,4.0,46,0.00,,,0.00,weatherlink.com 1.10,2013-03-15 21:20:00,
2013-03-15 14:36:00,59.4,38.0,30.09,WNW,296,0.0,0.0,46,0.00,,,0.00,weatherlink.com 1.10,2013-03-15 21:36:00,
2013-03-15 14:51:00,59.5,38.0,30.09,NNW,336,0.0,6.0,45,0.00,,,0.00,weatherlink.com 1.10,2013-03-15 21:51:00,
2013-03-15 15:06:00,60.0,39.0,30.08,NNE,12,4.0,7.0,47,0.00,,,0.00,weatherlink.com 1.10,2013-03-15 22:06:00,
2013-03-15 15:21:00,60.1,39.0,30.07,North,355,0.0,6.0,45,0.00,,,0.00,weatherlink.com 1.10,2013-03-15 22:21:00,
2013-03-15 15:51:00,59.0,39.0,30.07,NW,318,2.0,9.0,48,0.00,,,0.00,weatherlink.com 1.10,2013-03-15 22:51:00,
2013-03-15 16:21:00,59.0,39.0,30.08,NNW,329,3.0,11.0,48,0.00,,,0.00,weatherlink.com 1.10,2013-03-15 23:21:00,
2013-03-15 16:37:00,58.6,39.0,30.07,NNW,337,0.0,7.0,48,0.00,,,0.00,weatherlink.com 1.10,2013-03-15 23:37:00,
2013-03-15 16:52:00,58.2,39.0,30.07,NNW,329,4.0,10.0,50,0.00,,,0.00,weatherlink.com 1.10,2013-03-15 23:52:00,
2013-03-15 17:07:00,58.0,38.0,30.07,NNW,342,1.0,7.0,48,0.00,,,0.00,weatherlink.com 1.10,2013-03-16 00:07:00,
2013-03-15 17:22:00,57.7,36.0,30.07,NNW,342,2.0,6.0,45,0.00,,,0.00,weatherlink.com 1.10,2013-03-16 00:22:00,
2013-03-15 17:37:00,57.5,37.0,30.07,NNW,342,2.0,5.0,47,0.00,,,0.00,weatherlink.com 1.10,2013-03-16 00:37:00,
2013-03-15 17:52:00,57.1,37.0,30.07,NNW,337,1.0,7.0,47,0.00,,,0.00,weatherlink.com 1.10,2013-03-16 00:52:00,
2013-03-15 18:07:00,56.6,36.0,30.07,NNW,338,0.0,4.0,47,0.00,,,0.00,weatherlink.com 1.10,2013-03-16 01:07:00,
2013-03-15 18:24:00,56.2,38.0,30.07,NNW,338,0.0,0.0,50,0.00,,,0.00,weatherlink.com 1.10,2013-03-16 01:24:00,
2013-03-15 18:39:00,56.7,38.0,30.07,NNW,338,0.0,0.0,50,0.00,,,0.00,weatherlink.com 1.10,2013-03-16 01:39:00,
2013-03-15 18:54:00,56.8,37.0,30.07,NNW,338,1.0,4.0,48,0.00,,,0.00,weatherlink.com 1.10,2013-03-16 01:54:00,
2013-03-15 19:09:00,55.1,37.0,30.07,NNW,340,1.0,5.0,50,0.00,,,0.00,weatherlink.com 1.10,2013-03-16 02:09:00,
2013-03-15 19:24:00,52.7,36.0,30.07,NNW,344,5.0,5.0,54,0.00,,,0.00,weatherlink.com 1.10,2013-03-16 02:24:00,
2013-03-15 19:39:00,51.2,36.0,30.07,North,350,0.0,4.0,57,0.00,,,0.00,weatherlink.com 1.10,2013-03-16 02:39:00,
2013-03-15 19:54:00,51.7,38.0,30.08,North,350,1.0,6.0,60,0.00,,,0.00,weatherlink.com 1.10,2013-03-16 02:54:00,
2013-03-15 20:09:00,52.3,39.0,30.08,NNW,331,2.0,9.0,60,0.00,,,0.00,weatherlink.com 1.10,2013-03-16 03:09:00,
2013-03-15 20:24:00,51.2,39.0,30.08,NNW,341,0.0,7.0,63,0.00,,,0.00,weatherlink.com 1.10,2013-03-16 03:24:00,
2013-03-15 20:39:00,50.2,38.0,30.08,NNW,346,0.0,6.0,63,0.00,,,0.00,weatherlink.com 1.10,2013-03-16 03:39:00,
2013-03-15 20:54:00,48.3,37.0,30.08,NNW,346,0.0,0.0,65,0.00,,,0.00,weatherlink.com 1.10,2013-03-16 03:54:00,
2013-03-15 21:09:00,47.9,38.0,30.09,NNW,348,0.0,6.0,68,0.00,,,0.00,weatherlink.com 1.10,2013-03-16 04:09:00,
2013-03-15 21:25:00,47.2,37.0,30.09,NNW,348,0.0,1.0,69,0.00,,,0.00,weatherlink.com 1.10,2013-03-16 04:25:00,
2013-03-15 21:40:00,46.5,38.0,30.09,NNW,348,0.0,0.0,72,0.00,,,0.00,weatherlink.com 1.10,2013-03-16 04:40:00,
2013-03-15 21:55:00,46.1,37.0,30.09,NNW,348,0.0,0.0,71,0.00,,,0.00,weatherlink.com 1.10,2013-03-16 04:55:00,
2013-03-15 22:10:00,44.3,37.0,30.09,NNW,348,0.0,0.0,74,0.00,,,0.00,weatherlink.com 1.10,2013-03-16 05:10:00,
2013-03-15 22:25:00,43.0,36.0,30.09,NNW,348,0.0,0.0,75,0.00,,,0.00,weatherlink.com 1.10,2013-03-16 05:25:00,
2013-03-15 22:40:00,43.5,37.0,30.09,NNW,348,0.0,2.0,79,0.00,,,0.00,weatherlink.com 1.10,2013-03-16 05:40:00,
2013-03-15 22:55:00,41.3,34.0,30.09,NNE,22,0.0,4.0,75,0.00,,,0.00,weatherlink.com 1.10,2013-03-16 05:55:00,
2013-03-15 23:26:00,39.3,34.0,30.09,ENE,66,0.0,4.0,80,0.00,,,0.00,weatherlink.com 1.10,2013-03-16 06:26:00,
2013-03-15 23:41:00,39.4,34.0,30.09,East,82,0.0,4.0,80,0.00,,,0.00,weatherlink.com 1.10,2013-03-16 06:41:00,
2013-03-15 23:56:00,38.7,33.0,30.09,East,88,0.0,0.0,81,0.00,,,0.00,weatherlink.com 1.10,2013-03-16 06:56:00,